Regional Weather Roundup
Issued by NWS

Home | Current Version | Previous Version | Text Only | Print | Product List | Glossary Off
Versions: 1 2 3 4 5 6 7 8 9 10 11 12 13 14 15 16 17 18 19 20 21 22 23 24 25 26 27 28 29 30 31 32 33 34 35 36 37 38 39 40 41 42 43 44 45 46 47 48 49 50

000
ASUS43 KOAX 042210
RWRNE

WEATHER ROUNDUP FOR NEBRASKA
NATIONAL WEATHER SERVICE OMAHA NE
500 PM CDT MON MAY 04 2015

NOTES: SATELLITE DATA IS BEING USED TO AUGMENT CLOUD COVER ABOVE
       12000 FEET.
       "FAIR" INDICATES FEW OR NO CLOUDS BELOW 12,000 FEET WITH NO
       SIGNIFICANT WEATHER AND/OR OBSTRUCTIONS TO VISIBILITY.

  * THESE STATIONS DO NOT REPORT WEATHER SUCH AS RAIN...SNOW OR FOG.

NEZ001>004-019>022-054>056-042300-
NEBRASKA PANHANDLE

CITY           SKY/WX    TMP DP  RH WIND       PRES   REMARKS
SCOTTSBLUFF    CLOUDY    62  38  40 E13G22    30.09F
ALLIANCE       CLOUDY    60  34  37 E15       30.11F
CHADRON        LGT RAIN  51  40  65 E9        30.13F
KIMBALL        CLOUDY    58  43  57 SE12      30.08F
SIDNEY         MOSUNNY   61  41  47 E13       30.11F
$$

NEZ057>060-069>072-079>082-042300-
SOUTHWEST NEBRASKA

CITY           SKY/WX    TMP DP  RH WIND       PRES   REMARKS
NORTH PLATTE   LGT RAIN  50  45  83 E10       30.14S
IMPERIAL       CLOUDY    51  46  83 E14       30.12F
LEXINGTON      LGT RAIN  53  50  91 NE12G17   30.11F
MCCOOK         PTSUNNY   61  45  55 N14       30.07F
OGALLALA       LGT RAIN  48  46  92 E13       30.15S
$$

NEZ005>010-023>029-035>040-094-042300-
NORTH CENTRAL NEBRASKA

CITY           SKY/WX    TMP DP  RH WIND       PRES   REMARKS
VALENTINE      CLOUDY    67  24  19 E16       30.13F
AINSWORTH      CLOUDY    67  28  22 E15       30.12S
BROKEN BOW     LGT RAIN  54  49  83 E5        30.13F
O`NEILL        CLOUDY    65  35  33 SE10      30.13S
ORD            LGT RAIN  56  47  71 SE6       30.12S
THEDFORD       CLOUDY    63  31  29 E14       30.14F
$$

NEZ041-046>049-061>064-073>077-083>087-042300-
SOUTH CENTRAL NEBRASKA

CITY           SKY/WX    TMP DP  RH WIND       PRES   REMARKS
GRAND ISLAND   CLOUDY    54  51  90 N9        30.10F
AURORA         CLOUDY    56  54  94 NE15      30.07F
HASTINGS       CLOUDY    56  51  84 NE16      30.06F
HEBRON         CLOUDY    64  57  76 NE13      30.01F
HOLDREGE       CLOUDY    55  49  80 NE15      30.07F
KEARNEY *      CLOUDY    54  46  76 NE14      30.10F
YORK           CLOUDY    57  55  94 NE17      30.06F
$$

NEZ011>018-030>034-042>045-042300-
NORTHEAST NEBRASKA

CITY           SKY/WX    TMP DP  RH WIND       PRES   REMARKS
NORFOLK        LGT RAIN  57  51  80 E13       30.11F
ALBION         LGT RAIN  55  49  78 E10       30.12S
BLAIR          CLOUDY    57  53  86 N16       30.08F
COLUMBUS *     CLOUDY    55  48  76 NE16      30.10F
FREMONT        RAIN      58  55  89 N8        30.10F
TEKAMAH        LGT RAIN  59  54  83 NE12      30.12S
WAYNE          DRIZZLE   62  47  58 E12       30.13S
$$

NEZ050>053-065>068-078-088>093-042300-
SOUTHEAST NEBRASKA

CITY           SKY/WX    TMP DP  RH WIND       PRES   REMARKS
LINCOLN        CLOUDY    58  56  93 NE16      30.05F
OMAHA EPPLEY   CLOUDY    62  57  83 N14       30.07F
BEATRICE       LGT RAIN  63  60  89 NE15      30.03R
FALLS CITY     LGT RAIN  67  63  87 E9        29.99F
NEBRASKA CITY  RAIN      63  62  96 NE10      30.04F
PLATTSMOUTH    LGT RAIN  64  59  85 N6        30.06S
$$

NEZ044-045-051>053-067-042300-
OMAHA AREA

CITY           SKY/WX    TMP DP  RH WIND       PRES   REMARKS
OMAHA EPPLEY   CLOUDY    62  57  83 N14       30.07F
BLAIR          CLOUDY    57  53  86 N16       30.08F
FREMONT        RAIN      58  55  89 N8        30.10F
MILLARD        LGT RAIN  63  56  78 N5        30.07S
OFFUTT AFB     LGT RAIN  66  59  77 N6        30.06R
PLATTSMOUTH    LGT RAIN  64  59  85 N6        30.06S
$$


USA.gov is the U.S. government's official web portal to all federal, state and local government web resources and services.